This is the latest recevied weather packets stored in our database for station/object 4S6DRJ-13. If no packets are shown the sender has not sent any weather packets the latest 10 day(s).
| Time | Temp. | Humidity | Pressure | Rain* | Wind** | Luminosity | Snow |
|---|---|---|---|---|---|---|---|
| 1787978337 | 30° C | 79% | 1010.9 hPa | 0 mm | 2.24 m/s, 190° | 473 W/m² | - |
| 1787978276 | 30° C | 79% | 1010.9 hPa | 0 mm | 0.45 m/s, 108° | 357 W/m² | - |
| 1787978215 | 30° C | 80% | 1010.9 hPa | 0 mm | 1.79 m/s, 222° | 391 W/m² | - |
| 1787978154 | 29.44° C | 80% | 1010.9 hPa | 0 mm | 0.45 m/s, 179° | 374 W/m² | - |
| 1787978093 | 29.44° C | 80% | 1010.8 hPa | 0 mm | 0.45 m/s, 209° | 538 W/m² | - |
| 1787978032 | 29.44° C | 80% | 1010.9 hPa | 0 mm | 0.89 m/s, 249° | 329 W/m² | - |
| 1787977971 | 29.44° C | 80% | 1010.9 hPa | 0 mm | 1.34 m/s, 245° | 282 W/m² | - |
| 1787977910 | 29.44° C | 79% | 1011 hPa | 0 mm | 1.79 m/s, 207° | 237 W/m² | - |
| 1787977849 | 29.44° C | 79% | 1010.9 hPa | 0 mm | 2.68 m/s, 308° | 213 W/m² | - |
| 1787977788 | 29.44° C | 78% | 1011 hPa | 0 mm | 2.68 m/s, 261° | 239 W/m² | - |
| 1787977727 | 30° C | 78% | 1011 hPa | 0 mm | 1.34 m/s, 205° | 321 W/m² | - |
| 1787977666 | 30° C | 77% | 1010.9 hPa | 0 mm | 4.47 m/s, 203° | 287 W/m² | - |
| 1787977606 | 30° C | 77% | 1011 hPa | 0 mm | 2.68 m/s, 241° | 284 W/m² | - |
| 1787977544 | 30° C | 77% | 1011 hPa | 0 mm | 4.02 m/s, 119° | 311 W/m² | - |
| 1787977483 | 30° C | 78% | 1011 hPa | 0 mm | 2.68 m/s, 108° | 385 W/m² | - |
| 1787977422 | 30° C | 77% | 1011.1 hPa | 0 mm | 2.68 m/s, 253° | 366 W/m² | - |
| 1787977361 | 30° C | 78% | 1011 hPa | 0 mm | 1.79 m/s, 230° | 448 W/m² | - |
| 1787977300 | 30° C | 78% | 1010.8 hPa | 0 mm | 3.13 m/s, 225° | 796 W/m² | - |
| 1787977239 | 30° C | 77% | 1010.9 hPa | 0 mm | 3.13 m/s, 312° | 568 W/m² | - |
| 1787977178 | 30° C | 78% | 1011.2 hPa | 0 mm | 1.79 m/s, 232° | 348 W/m² | - |
| 1787977117 | 30° C | 78% | 1010.9 hPa | 0 mm | 1.34 m/s, 227° | 319 W/m² | - |
| 1787977056 | 30° C | 77% | 1010.8 hPa | 0 mm | 2.24 m/s, 265° | 406 W/m² | - |
| 1787976995 | 30° C | 77% | 1011 hPa | 0 mm | 1.79 m/s, 181° | 745 W/m² | - |
| 1787976934 | 30° C | 77% | 1010.9 hPa | 0 mm | 1.34 m/s, 221° | 700 W/m² | - |
| 1787976873 | 30° C | 76% | 1011.1 hPa | 0 mm | 3.58 m/s, 214° | 851 W/m² | - |
* Rain latest hour (hover to see other rain measurements)
** Current wind speed in m/s (hover to see current wind gust speed)